Lapse_Rate
9.2 9.3 9.2 9.3 9.3 9.3 9.2 8.6 8.4 8.5 8.2 7.8 8.1 7.6 7.3 7.8 8.1 7.6 7.9 7.6 7.3 6.5 6.1 5.6 5.4 4.1 5.2 5.7 6.6 6.6 8.7 8.0 7.0 6.1 6.3 6.5 6.3 6.1 6.5 6.0 6.1 6.4 6.4 6.1 5.7 6.4 6.4
8.8 9.0 8.4 8.3 8.6 9.0 9.2 8.6 8.3 8.4 8.2 7.7 7.4 7.5 7.5 7.7 7.4 7.2 7.7 7.3 7.4 6.7 6.3 6.5 6.0 5.5 4.7 6.2 6.7 6.2 7.5 7.8 6.9 6.6 6.1 5.1 6.2 5.6 5.5 6.0 6.4 6.0 5.8 5.8 6.2 6.5 6.6
9.1 8.8 8.8 8.8 8.2 8.1 8.0 7.8 7.8 8.3 8.4 7.9 7.9 7.6 7.1 7.2 7.9 7.7 7.4 7.3 7.8 6.5 6.6 6.6 6.0 5.3 4.9 6.0 5.8 5.4 6.6 6.9 6.0 6.6 5.7 4.7 4.6 5.2 5.9 6.3 6.4 6.0 6.5 6.5 6.3 6.5 6.5
8.9 8.6 8.8 8.2 8.0 8.1 7.8 7.7 7.8 8.1 8.0 7.7 7.2 7.6 7.8 7.4 7.4 7.4 7.2 7.0 7.1 6.9 6.4 6.1 5.1 5.2 6.4 6.1 5.4 6.2 7.8 6.4 5.9 5.6 4.9 4.7 4.3 4.7 5.6 5.6 6.4 6.5 6.5 6.5 6.5 6.4 6.3
8.2 8.3 8.0 7.8 8.2 8.0 7.7 7.9 8.0 7.9 7.9 7.5 7.4 7.4 7.5 7.3 7.2 7.1 6.9 6.7 6.0 6.3 7.6 7.7 6.0 5.3 6.4 6.1 7.0 7.8 7.4 7.0 6.3 6.2 6.2 6.3 4.9 5.0 6.0 6.5 6.5 6.5 6.5 6.5 6.5 6.5 6.5
8.3 8.4 8.0 7.8 7.5 7.7 7.5 7.6 7.8 7.4 7.5 7.2 6.8 7.3 7.0 6.8 6.9 7.4 7.0 6.6 6.3 6.2 7.1 7.5 6.9 5.8 6.3 6.4 6.4 7.9 7.4 7.7 6.7 6.1 5.3 5.1 3.3 6.5 6.5 6.5 6.5 6.5 6.5 6.5 6.5 6.5 6.5
7.8 8.0 8.1 8.0 7.6 7.4 7.9 7.4 7.7 7.6 7.4 7.5 6.7 6.5 6.8 6.9 7.1 6.8 5.8 5.7 5.9 6.4 7.4 7.2 7.0 6.6 6.2 6.2 6.6 7.4 7.7 6.5 7.0 6.0 6.5 5.7 6.5 6.5 6.5 6.5 6.5 6.5 6.5 6.5 6.5 6.5 6.5
7.0 7.8 7.7 7.8 8.0 7.5 7.4 7.3 7.2 7.3 7.2 7.6 7.0 6.8 7.0 6.8 6.6 6.5 6.1 5.2 6.0 6.9 6.5 6.3 6.7 5.7 5.8 6.2 6.7 6.3 6.4 6.5 6.5 6.5 6.4 6.5 6.5 6.5 6.5 6.5 6.5 6.5 6.5 6.5 6.5 6.5 6.5
6.5 6.5 7.7 7.5 7.4 6.8 7.4 7.5 6.8 6.6 7.1 7.1 7.1 7.0 6.9 6.8 6.6 5.0 4.1 5.0 5.5 6.0 6.5 6.3 5.7 6.2 6.3 7.1 6.9 6.4 5.8 6.0 6.2 6.5 6.5 6.5 6.5 6.5 6.5 6.5 6.5 6.5 6.5 6.5 6.5 6.5 6.5
5.6 5.8 5.8 6.5 5.6 5.7 6.4 6.3 6.4 6.1 6.5 6.7 6.6 7.0 6.3 6.5 5.5 4.1 4.8 5.3 5.2 5.8 6.5 6.5 6.6 7.2 7.1 7.1 6.4 7.4 6.5 6.4 6.1 6.5 6.5 6.5 6.5 6.5 6.5 6.5 6.5 6.5 6.5 6.5 6.5 6.5 6.5
5.2 5.1 4.9 5.3 5.0 4.9 5.2 5.4 5.7 5.6 5.8 6.7 7.0 6.8 6.9 5.7 4.2 5.3 6.1 5.8 6.3 5.7 6.5 6.5 6.8 7.7 6.9 6.6 6.6 6.4 7.3 6.2 6.5 6.5 6.5 6.5 6.5 6.5 6.5 6.5 6.5 6.5 6.5 6.5 6.5 6.5 6.5
4.5 4.7 4.4 4.4 4.6 4.6 4.4 4.2 4.4 4.6 4.5 5.1 5.4 5.8 6.5 6.0 5.3 5.6 6.2 5.6 5.7 6.5 6.5 6.5 6.7 6.5 6.5 6.7 6.7 6.8 6.9 5.7 6.5 6.5 6.5 6.5 6.6 6.5 6.5 6.5 6.5 6.5 6.5 6.5 6.5 6.5 6.5
3.9 4.4 4.1 4.0 3.9 3.9 3.9 3.9 3.6 3.2 3.6 4.1 4.7 5.4 6.0 5.9 5.2 5.6 5.0 4.3 6.5 6.5 6.5 6.5 6.5 6.5 6.5 6.5 6.5 6.5 6.5 6.5 6.5 6.5 6.5 6.5 6.5 6.5 6.5 6.5 6.5 6.5 6.5 6.5 6.5 6.5 6.5
2.7 3.3 4.1 4.0 3.7 3.4 3.3 3.3 3.3 3.4 3.2 3.5 4.2 4.6 5.0 5.7 5.1 4.7 3.7 6.2 6.5 6.5 6.5 6.5 6.5 6.5 6.5 6.5 6.5 6.5 6.5 6.5 6.5 6.5 6.5 6.5 6.5 6.5 6.5 6.5 6.5 6.5 6.5 6.5 6.5 6.5 6.5
3.0 2.6 2.8 3.5 3.4 3.1 2.8 2.9 2.9 2.8 2.6 3.0 3.0 2.1 2.7 3.2 4.5 2.8 3.2 6.5 6.5 6.5 6.5 6.5 6.5 6.5 6.5 6.5 6.5 6.5 6.5 6.5 6.5 6.5 6.5 6.5 6.5 6.5 6.5 6.5 6.5 6.5 6.5 6.5 6.5 6.5 6.5
2.7 2.8 2.5 2.2 2.5 2.4 2.1 2.1 2.0 2.1 2.0 2.1 1.5 3.3 3.8 3.5 3.6 2.0 5.5 6.5 6.5 6.5 6.5 6.5 6.5 6.5 6.5 6.5 6.5 6.5 6.5 6.5 6.5 6.5 6.3 6.5 6.5 6.5 6.5 6.5 6.4 6.5 6.5 6.5 6.5 6.5 6.5
2.1 2.4 2.4 2.2 1.7 1.7 1.9 1.5 1.2 1.3 1.3 1.4 1.2 3.4 3.1 3.3 1.6 2.1 6.5 6.5 6.5 6.5 6.1 6.5 6.5 6.5 6.5 6.5 6.5 6.5 6.5 6.5 6.5 6.5 6.4 6.5 6.5 6.5 6.5 6.5 6.5 6.5 6.5 6.5 6.5 6.5 6.5
2.2 2.1 2.1 2.1 1.8 1.4 1.2 1.1 0.9 0.8 1.0 0.5 1.9 5.3 2.5 1.1 4.0 4.2 6.5 6.5 6.5 6.5 6.7 6.4 6.5 6.5 6.5 6.5 6.5 6.5 6.5 6.5 5.8 6.0 6.5 6.5 6.5 6.5 6.5 6.5 6.5 6.5 6.5 6.5 6.5 6.5 6.5
1.7 2.1 2.1 1.7 1.4 1.2 1.0 0.7 0.4 0.7 0.4 -0.9 2.3 2.8 2.3 2.4 6.5 6.5 6.4 6.5 6.4 6.5 6.4 6.5 6.5 6.5 6.5 6.5 6.5 6.5 6.5 6.2 5.8 6.4 6.5 6.5 6.5 6.5 6.5 6.5 6.5 6.5 6.5 6.5 6.5 6.5 6.5
2.0 1.9 1.9 1.9 1.4 1.0 0.8 0.5 0.2 0.2 0.6 -0.7 1.8 6.5 2.0 1.2 2.6 6.2 6.5 6.5 6.5 6.4 6.5 6.6 6.5 6.5 6.5 6.5 6.5 6.5 6.5 6.4 5.6 6.4 6.4 6.1 6.5 6.5 6.5 6.5 6.5 6.5 6.5 6.5 6.5 6.5 6.5
2.0 2.0 1.8 1.5 1.8 1.3 0.6 0.2 0.2 0.2 0.4 0.6 1.6 4.8 4.4 6.5 5.6 6.2 6.4 6.5 6.5 6.5 6.4 6.5 6.5 6.5 6.5 6.5 6.5 6.5 6.5 6.5 6.3 6.0 6.3 6.5 6.5 6.5 6.5 6.5 6.5 6.5 6.5 6.5 6.5 6.5 6.5
2.1 2.0 1.8 1.7 1.7 1.6 1.1 0.3 -0.1 0.1 1.6 -0.0 2.6 3.8 2.7 4.1 5.2 6.4 6.4 6.5 6.5 6.5 6.5 6.5 6.5 6.5 6.5 6.5 6.5 6.5 6.5 6.5 6.5 6.5 6.5 6.4 6.5 6.5 6.5 6.5 6.5 6.5 6.5 6.5 6.5 6.5 6.5
2.4 2.4 2.2 1.8 1.7 1.7 1.4 1.0 0.4 0.0 1.4 0.3 0.7 2.3 3.3 4.6 5.7 6.5 6.5 6.5 6.5 6.3 6.4 6.2 6.4 6.5 6.5 6.4 5.9 5.2 5.1 4.7 5.5 6.4 6.5 6.5 6.5 6.5 6.5 6.5 6.5 6.5 6.5 6.5 6.5 6.5 6.5
3.0 3.0 2.9 2.7 2.1 1.8 1.7 1.6 1.4 1.1 0.3 -0.3 0.2 0.7 2.9 6.5 6.3 6.5 6.5 6.4 6.5 6.4 6.5 6.4 6.3 6.5 6.3 5.6 4.2 4.0 3.6 4.3 4.9 5.6 4.8 6.5 6.5 6.5 6.5 6.5 6.5 6.5 6.5 6.5 6.5 6.5 6.5
4.0 3.6 3.4 3.2 2.9 2.5 2.2 1.9 2.0 1.8 1.4 -0.7 -0.9 0.7 2.8 6.5 5.5 5.9 6.4 6.4 6.2 6.0 6.2 6.1 6.1 5.2 4.9 5.6 6.5 6.5 6.5 6.5 6.5 6.5 6.5 6.0 6.5 6.5 6.5 6.5 6.5 6.5 6.5 6.5 6.5 6.5 6.5
3.7 3.9 3.4 3.1 2.9 3.1 2.9 2.4 2.1 2.3 2.0 0.3 -0.9 -0.5 2.0 4.8 6.0 6.2 5.8 6.2 6.4 6.5 6.2 6.2 5.8 5.0 5.9 5.9 6.5 6.5 6.5 6.5 6.5 6.5 6.2 6.5 6.5 6.5 6.5 6.5 6.5 6.5 6.5 5.9 6.4 6.5 6.4
3.6 3.5 3.5 3.3 3.1 3.0 3.1 3.0 2.7 2.4 2.6 1.2 0.2 0.4 1.7 3.9 3.8 6.2 5.4 6.0 4.7 5.4 6.5 5.9 5.7 5.7 5.5 6.5 6.5 6.5 6.5 6.5 6.5 6.5 6.5 6.5 6.5 6.5 6.5 6.5 6.5 6.5 6.1 5.9 6.5 6.5 6.0
3.2 3.3 3.5 3.5 3.4 3.2 3.1 3.4 3.1 2.9 2.8 2.3 1.3 1.5 1.5 2.7 2.4 5.4 5.9 5.5 4.9 4.1 6.5 4.9 5.9 5.9 6.0 6.5 6.5 6.5 6.5 6.5 6.5 6.5 6.5 6.5 6.5 6.5 6.5 6.5 6.5 5.7 6.3 6.5 5.9 5.0 4.5
3.1 3.2 3.3 3.6 3.8 3.8 3.5 3.5 3.5 3.2 3.1 3.3 2.4 2.4 2.2 1.7 2.0 2.4 4.0 4.5 5.7 5.5 4.1 4.1 5.3 5.4 4.5 6.5 6.5 6.5 6.5 6.5 6.5 6.5 6.5 6.5 6.5 6.5 6.5 6.5 5.7 4.0 4.5 3.5 3.5 3.7 4.5
Wind_Speed
24 24 24 23 23 24 23 23 20 17 16 15 16 15 12 11 13 14 12 11 8 8 20 22 22 13 3 8 4 15 13 9 11 7 5 5 2 2 5 4 4 5 3 5 5 3 1
23 24 24 23 21 20 20 21 21 17 15 13 14 14 11 11 12 13 12 11 7 14 21 20 17 13 6 9 7 17 17 6 7 4 7 7 2 4 6 4 4 3 5 6 4 1 2
25 25 25 24 22 19 17 17 17 16 15 13 12 14 11 16 16 14 12 9 8 20 23 20 20 12 13 2 9 20 12 4 6 4 3 5 4 6 3 4 1 4 4 1 2 2 0
24 25 25 24 24 23 18 14 15 15 16 14 10 10 12 15 15 13 12 12 13 19 21 21 20 7 4 6 23 10 5 6 8 6 3 6 6 5 4 3 3 3 3 2 1 1 1
21 21 21 24 25 26 22 15 15 14 14 12 7 8 10 13 13 10 14 19 24 18 15 13 7 5 3 18 7 6 7 4 3 3 2 2 4 4 3 4 5 4 0 2 1 2 0
25 26 27 25 23 24 23 18 17 15 14 13 9 6 12 13 8 16 24 28 28 12 7 5 7 6 6 2 5 6 5 4 3 1 4 6 5 4 5 5 3 1 1 2 2 2 2
25 26 26 26 25 23 22 20 19 16 16 19 20 21 17 14 16 13 5 3 4 6 12 8 11 15 5 3 4 4 2 4 1 4 3 4 9 3 2 3 3 3 2 2 3 2 3
25 26 26 26 26 24 21 20 19 17 15 15 23 21 17 12 8 6 4 5 2 4 14 12 9 4 3 2 4 10 6 1 1 4 3 7 3 1 3 4 5 5 3 3 3 2 5
23 25 26 26 25 23 22 20 18 17 16 15 15 13 12 12 12 11 6 5 3 3 5 5 3 2 2 5 4 7 6 3 5 5 4 6 4 1 2 5 5 4 4 2 2 6 4
22 24 25 25 24 22 20 18 18 15 13 12 11 8 4 8 8 3 3 4 6 3 5 9 9 5 4 2 4 3 4 2 6 5 6 6 1 1 3 3 3 2 2 2 4 5 2
22 22 23 24 24 22 19 17 15 14 12 10 10 11 4 3 5 1 1 7 5 1 6 5 4 2 5 4 3 6 3 5 4 3 4 3 3 1 3 3 2 2 1 1 2 2 4
22 22 22 23 23 22 20 18 14 11 9 8 5 7 7 3 2 0 4 4 1 3 6 1 2 3 3 2 2 1 3 5 2 6 6 3 1 2 1 0 1 3 3 1 2 2 2
21 21 21 21 22 22 21 18 17 14 4 3 4 4 4 5 2 2 4 3 5 7 3 1 2 1 3 1 3 2 2 2 3 5 4 5 1 1 1 2 1 2 4 3 3 1 5
20 20 20 21 21 21 22 20 17 13 9 6 4 3 2 3 1 1 2 5 10 4 3 3 1 2 3 4 0 3 3 2 2 3 3 4 5 3 4 3 2 4 5 4 4 2 4
20 20 20 20 21 20 20 20 19 14 7 6 8 4 3 1 4 3 4 6 6 5 4 4 1 2 0 2 1 2 3 2 2 4 4 4 4 2 3 2 2 2 0 3 2 1 3
19 20 21 21 21 20 21 20 18 16 11 1 1 0 3 2 5 4 5 5 3 2 2 3 1 2 2 2 1 3 4 1 2 1 2 3 2 4 2 2 2 2 2 3 2 2 5
17 19 20 21 23 22 22 23 23 18 11 2 2 2 2 7 3 5 4 3 4 5 6 3 4 3 3 2 1 2 3 1 2 3 1 1 4 3 3 6 7 2 2 4 2 4 4
17 18 20 21 21 24 24 24 24 21 11 5 1 3 2 4 4 3 2 2 2 0 2 3 2 4 2 3 1 1 3 1 5 5 1 2 3 4 9 5 8 5 7 6 4 4 4
14 18 20 21 21 22 25 27 26 22 11 2 2 1 1 3 3 2 1 1 1 4 4 2 1 1 1 1 2 1 3 3 5 3 1 2 2 3 6 5 3 4 5 6 3 2 7
14 15 18 22 23 24 26 27 29 25 11 1 3 2 4 4 2 6 3 3 1 1 1 2 1 2 1 2 2 1 3 4 6 3 4 3 2 6 6 4 2 4 6 7 8 4 6
13 15 16 19 22 25 27 28 30 31 19 3 3 1 3 1 3 2 2 1 3 1 1 1 2 2 1 2 3 3 4 3 3 6 3 4 4 3 7 9 8 13 16 15 17 18 11
13 13 14 16 20 23 26 29 32 35 16 4 3 2 3 1 1 2 0 3 3 2 4 3 3 3 3 3 2 3 3 2 5 2 5 3 4 2 5 9 9 14 17 18 21 22 20
11 13 13 14 16 20 23 26 30 34 14 3 2 2 3 3 0 2 2 1 1 3 1 4 2 1 4 4 2 5 4 5 6 7 7 5 3 2 5 5 10 10 10 8 6 6 14
10 12 12 13 14 17 20 23 25 28 18 2 1 1 3 2 1 2 2 1 1 2 2 3 2 2 1 4 6 5 6 8 7 7 7 4 4 2 4 5 3 6 4 6 9 8 15
10 10 11 11 13 15 16 19 21 22 21 4 2 3 2 2 1 3 2 2 2 2 3 4 3 1 2 4 4 5 4 3 2 2 7 7 5 2 2 2 11 13 4 3 4 7 8
7 9 8 9 11 10 12 15 17 19 19 4 2 0 2 2 3 3 1 2 3 2 4 2 2 1 3 2 2 2 3 4 2 2 5 4 3 4 1 2 6 5 2 3 3 6 5
3 6 8 8 8 7 7 9 12 14 16 3 1 4 2 1 3 1 2 3 3 2 2 1 2 2 3 2 1 3 4 2 2 3 2 2 2 10 9 6 9 9 4 1 3 6 3
4 5 6 8 9 8 6 5 6 9 12 5 1 5 3 0 5 3 2 3 1 1 3 3 3 1 2 2 3 3 3 4 2 4 6 8 6 5 4 5 10 5 3 7 6 2 5
5 5 5 6 8 9 6 5 5 3 7 6 1 2 2 3 5 1 5 5 3 4 4 2 2 2 4 2 2 1 2 2 3 4 1 2 7 5 11 9 7 8 8 9 3 4 4
Wind_Direction
33 30 33 31 29 28 31 33 34 37 44 53 53 62 78 88 71 66 48 37 46 64 111 111 104 92 306 61 32 328 338 315 308 327 348 10 67 95 119 126 92 90 109 69 107 112 256
34 28 26 31 26 26 30 32 36 42 51 53 60 63 63 66 67 60 46 36 53 116 122 115 99 83 54 74 293 321 327 342 345 334 22 24 16 101 95 87 71 107 112 126 103 115 231
33 27 23 24 24 24 24 29 36 40 56 61 74 57 73 76 72 65 51 43 88 119 119 111 85 73 51 57 315 315 313 27 11 36 63 2 332 72 99 89 45 97 97 104 184 164 174
32 29 21 19 20 26 34 40 41 48 53 55 59 70 75 66 64 63 60 65 89 132 120 104 80 66 78 278 308 294 99 32 26 26 58 351 12 81 79 142 78 81 59 55 276 154 273
25 26 18 19 20 29 41 48 51 53 41 42 44 75 75 71 66 68 83 85 77 115 109 113 65 87 153 319 3 5 44 94 61 359 12 347 47 91 36 79 36 16 181 171 231 228 87
20 21 17 16 17 26 39 51 57 56 43 47 46 88 102 91 99 106 85 82 70 47 21 92 113 75 315 300 292 341 340 9 68 5 23 38 49 67 25 54 175 131 22 358 117 260 294
25 25 23 18 23 32 42 51 55 48 41 53 59 116 111 113 113 59 39 27 48 44 38 69 63 96 155 261 293 7 329 344 305 32 92 32 67 93 105 53 111 114 88 10 89 308 317
25 26 27 25 23 32 42 47 54 50 55 59 67 92 96 95 105 74 98 68 46 142 67 23 49 83 225 225 34 359 1 145 19 99 79 34 95 150 90 52 71 56 73 356 322 34 346
22 23 24 30 27 31 37 48 51 54 60 63 48 77 96 100 94 55 64 77 29 6 82 20 320 302 321 31 42 348 17 353 83 58 65 112 161 251 98 53 73 53 108 58 238 328 290
22 23 24 26 32 31 36 42 51 50 64 54 40 70 35 17 58 343 66 192 239 213 93 4 347 51 353 32 53 352 351 51 36 110 101 97 257 339 89 70 82 121 46 28 5 40 289
22 26 24 26 29 34 32 30 46 52 45 46 33 24 323 4 134 56 218 209 253 66 81 304 295 285 301 76 140 357 344 24 77 87 83 243 141 8 82 205 154 146 80 6 20 345 36
20 26 27 24 25 31 33 24 23 36 46 44 52 28 25 68 63 43 324 332 39 40 53 299 297 337 52 24 82 161 15 37 6 58 42 104 357 42 54 58 195 34 26 320 315 316 300
22 22 25 26 25 22 27 30 13 5 31 62 35 356 0 321 206 260 314 40 40 68 300 150 229 117 82 94 29 102 89 62 113 77 7 342 188 128 86 41 86 87 60 4 340 313 231
21 22 22 22 23 22 17 19 22 13 349 331 327 300 242 202 215 310 74 56 65 251 217 282 4 17 63 18 293 175 172 63 4 101 119 115 333 177 163 209 201 201 142 151 234 254 269
17 17 19 18 17 17 17 13 8 7 357 326 335 325 324 252 113 81 73 53 162 209 135 169 157 112 281 184 131 20 51 89 52 51 119 112 289 126 187 7 101 344 209 167 95 52 31
18 16 13 14 12 12 9 9 9 360 343 251 170 185 280 164 114 64 70 96 70 97 129 134 220 184 126 178 153 176 186 264 127 30 92 191 37 207 145 63 268 162 287 46 4 349 284
15 15 15 11 7 7 6 4 1 2 4 134 90 47 233 142 44 45 90 77 48 17 42 16 359 73 127 181 270 148 155 187 155 196 188 253 114 289 101 199 182 122 255 209 190 167 209
9 13 12 12 9 3 2 3 4 359 2 112 104 50 208 126 47 40 54 70 117 261 315 301 257 37 149 186 252 131 164 142 175 141 204 205 157 221 220 249 181 173 193 173 142 256 234
12 6 8 8 7 5 2 359 3 4 8 116 85 224 327 110 91 11 196 64 56 182 215 261 221 38 350 276 170 149 122 168 139 150 229 154 268 344 351 355 325 205 215 208 207 133 212
3 6 7 4 5 4 3 359 358 2 359 70 81 36 331 42 139 125 130 151 118 278 306 325 310 356 271 250 186 193 186 200 177 167 130 78 239 195 202 211 142 229 225 218 202 194 229
8 6 5 8 6 4 3 2 360 359 355 98 38 200 198 329 348 45 84 241 129 224 225 260 283 234 284 305 196 215 205 155 180 163 151 147 240 228 259 272 264 259 255 239 231 235 223
9 9 9 7 8 8 5 4 4 2 4 77 87 74 6 189 311 18 337 210 200 170 174 245 201 316 193 231 119 284 43 223 202 171 169 194 259 312 269 260 269 270 261 251 245 246 250
3 6 9 8 9 8 7 10 9 10 25 70 335 1 98 290 311 75 234 197 162 129 181 176 176 5 288 253 255 243 230 235 191 165 196 179 186 18 268 307 311 286 252 221 214 212 223
4 4 7 6 10 10 8 11 14 14 30 109 343 68 77 278 118 196 167 56 290 249 262 340 152 156 267 325 294 269 244 243 236 231 182 168 151 171 272 341 309 240 266 231 218 228 222
356 4 5 6 8 8 5 10 14 15 18 73 10 63 69 273 223 327 175 205 291 244 243 226 244 226 320 351 345 337 339 334 297 249 218 178 137 297 257 234 287 303 343 147 192 286 220
355 355 3 5 9 3 1 5 10 10 14 80 54 111 68 91 263 301 221 228 194 228 329 231 56 27 69 88 50 308 276 253 295 340 19 75 117 156 53 247 259 239 183 144 133 291 256
319 337 346 359 1 360 353 359 3 5 2 63 67 49 85 23 273 357 218 203 173 145 196 230 205 68 55 93 155 212 255 269 262 213 160 98 225 219 232 264 279 252 198 166 88 247 214
298 312 335 344 345 353 340 327 350 356 357 12 289 39 108 247 283 291 243 198 358 122 160 243 42 352 79 160 175 255 216 252 279 183 180 175 165 198 194 230 266 169 56 175 220 244 189
287 310 318 326 334 337 329 294 287 333 348 349 12 343 85 161 242 287 275 284 212 197 157 260 233 155 195 132 231 243 280 280 193 276 194 236 197 189 192 217 227 210 211 232 214 201 227